Tracking 29606 objects as of 19-Sep-2024
HD Live streaming from Space Station
objects crossing your sky now

STARLINK-5239

Track STARLINK-5239 now!
10-day predictions
STARLINK-5239 is classified as:


NORAD ID: 54183
Int'l Code: 2022-141AC
Perigee: 545.8 km
Apogee: 548.0 km
Inclination: 53.2 °
Period: 95.4 minutes
Semi major axis: 6917 km
RCS: Unknown
Launch date: October 28, 2022
Source: United States (US)
Launch site: AIR FORCE WESTERN TEST RANGE (AFWTR)
Your satellite tracking list
Your tracking list is empty




NASA's NSSDC Master Catalog

Two Line Element Set (TLE):
1 54183U 22141AC  24262.22200489 -.00001665  00000-0 -86561-4 0  9994
2 54183  53.2155 256.5268 0001579  94.4224 265.6948 15.08839029104724
Source of the keplerian elements: AFSPC